Location: Oshawa
(43.9000°N, 78.8670°W)
Time: 03:22:12
(UTC-04:00)

Iridium 98 - Visible Passes

Search period start: 26 March 2017 00:00
Search period end: 05 April 2017 00:00
Orbit: 776 x 779 km, 86.4° (Epoch: 24 March)

Date Brightness Start Highest point End Pass type
(mag) Time Alt. Az. Time Alt. Az. Time Alt. Az.
26 Mar 6.0 04:04:53 10° N 04:10:00 56° E 04:10:00 56° E visible
26 Mar 6.9 05:46:46 10° NW 05:50:15 18° WNW 05:50:27 18° W visible
27 Mar 7.0 03:31:41 10° NNE 03:36:17 31° ENE 03:36:17 31° ENE visible
27 Mar 6.3 05:12:25 10° NNW 05:16:44 32° WNW 05:16:44 32° WNW visible
28 Mar 7.8 02:58:57 10° NNE 03:02:31 18° ENE 03:02:36 18° ENE visible
28 Mar 5.7 04:38:32 10° N 04:43:02 54° WNW 04:43:02 54° WNW visible
29 Mar 5.8 04:04:55 10° N 04:09:24 64° NNE 04:09:24 64° NNE visible
29 Mar 7.3 05:47:53 10° NW 05:49:51 13° WNW 05:49:51 13° WNW visible
30 Mar 6.6 03:31:33 10° N 03:35:45 41° ENE 03:35:45 41° ENE visible
30 Mar 6.8 05:12:57 10° NNW 05:16:12 22° WNW 05:16:12 22° WNW visible
31 Mar 7.5 02:58:30 10° NNE 03:02:08 25° ENE 03:02:08 25° ENE visible
31 Mar 6.3 04:38:49 10° NNW 04:42:35 36° WNW 04:42:35 36° WNW visible
01 Apr 8.1 02:26:06 10° NE 02:28:32 14° ENE 02:28:32 14° ENE visible
01 Apr 6.0 04:05:03 10° N 04:09:00 51° NNW 04:09:00 51° NNW visible
02 Apr 6.4 03:31:32 10° N 03:35:25 47° NNE 03:35:25 47° NNE visible
02 Apr 7.3 05:13:43 10° NW 05:15:52 15° WNW 05:15:52 15° WNW visible
03 Apr 7.1 02:58:17 10° NNE 03:01:51 31° NE 03:01:51 31° NE visible
03 Apr 6.8 04:39:14 10° NNW 04:42:18 25° WNW 04:42:18 25° WNW visible
04 Apr 7.8 02:25:25 10° NNE 02:28:18 19° ENE 02:28:18 19° ENE visible
04 Apr 6.4 04:05:16 10° NNW 04:08:45 38° NW 04:08:45 38° NW visible
